Location: C�an Torras
(41.5052°N, 1.9280°E)
Time: 19:05:41
(UTC+00:00)

X-37B - Pass Details

Date: 20 January 2021
Orbit: 383 x 391 km, 45.0° (Epoch: 27 February)

Event Time Altitude Azimuth Distance (km) Brightness Sun altitude
Rises 17:27:25 0° 223° (SW) 2,260 5.8 -6.7°
Reaches altitude 10° 17:29:36 10° 213° (SSW) 1,411 4.3 -7.0°
Maximum altitude 17:32:28 31° 149° (SSE) 707 1.8 -7.5°
Enters shadow 17:35:18 10° 84° (E) 1,405 2.8 -8.0°
